Nantucket, MA

11:20 AM EST on February 06, 2016 (GMT -0500)
Nantucket Memorial

Weather History for KACK - January, 2013

Change the Weather History Date:

Saturday, January 5, 2013

  Actual Average Record
Temperature  
Mean Temperature 34 °F -  
Max Temperature 42 °F 36 °F 57 °F (1950)
Min Temperature 26 °F 22 °F 2 °F (1981)
Degree Days  
Heating Degree Days 31    
Moisture  
Dew Point 24 °F    
Average Humidity 63    
Maximum Humidity 81    
Minimum Humidity 45    
Precipitation  
Precipitation 0.00 in - - ()
Sea Level Pressure  
Sea Level Pressure 30.12 in    
Wind  
Wind Speed 14 mph (WNW)    
Max Wind Speed 23 mph    
Max Gust Speed 32 mph    
Visibility 10 miles    
Events      
Averages and records for this station are not official NWS values.
T = Trace of Precipitation, MM = Missing Value Source: NWS Daily Summary

Daily Weather History Graph

Daily Weather History Graph

Search for Another Location

Airport or City:

Trip Planner

Search our weather history database for the weather conditions in past years. The results will help you decide how hot, cold, wet, or windy it might be!

Date:

Astronomy

Jan. 05, 2013 Rise Set
Actual Time 7:06 AM EST 4:25 PM EST
Civil Twilight 6:35 AM EST 4:56 PM EST
Nautical Twilight 6:00 AM EST 5:31 PM EST
Astronomical Twilight 5:27 AM EST 6:04 PM EST
Moon 12:06 AM EST (1/5) 11:15 AM EST (1/5)
Length of Visible Light 10h 21m
Length of Day
9h 19m
Last Quarter, 44% of the Moon is Illuminated
Jan 5
Last Quarter
Jan 11
New
Jan 18
First Quarter
Jan 26
Full
Feb 3
Last Quarter

Hourly Weather History & Observations

Time (EST) Temp. Windchill Dew Point Humidity Pressure Visibility Wind Dir Wind Speed Gust Speed Precip Events Conditions
12:53 AM 35.1 °F 26.4 °F 25.0 °F 67% 29.90 in 10.0 mi West 12.7 mph - N/A   Clear
1:53 AM 34.0 °F 24.6 °F 23.0 °F 64% 29.91 in 10.0 mi WNW 13.8 mph - N/A   Clear
2:53 AM 34.0 °F 23.4 °F 21.0 °F 59% 29.93 in 10.0 mi West 17.3 mph 23.0 mph N/A   Clear
3:53 AM 34.0 °F 22.7 °F 21.0 °F 59% 29.95 in 10.0 mi West 19.6 mph 25.3 mph N/A   Clear
5:53 AM 34.0 °F 23.0 °F 23.0 °F 64% 29.99 in 10.0 mi West 18.4 mph 25.3 mph N/A   Clear
6:53 AM 35.1 °F 25.5 °F 24.1 °F 64% 30.04 in 10.0 mi West 15.0 mph 21.9 mph N/A   Clear
7:53 AM 37.0 °F 27.7 °F 24.1 °F 59% 30.08 in 10.0 mi West 16.1 mph - N/A   Clear
8:53 AM 39.0 °F 28.5 °F 26.1 °F 60% 30.10 in 10.0 mi West 23.0 mph - N/A   Clear
9:53 AM 41.0 °F 31.6 °F 24.1 °F 51% 30.14 in 10.0 mi West 20.7 mph 32.2 mph N/A   Clear
10:53 AM 42.1 °F 33.3 °F 23.0 °F 47% 30.14 in 10.0 mi WNW 19.6 mph 28.8 mph N/A   Clear
11:53 AM 42.1 °F 33.6 °F 25.0 °F 51% 30.14 in 10.0 mi West 18.4 mph 26.5 mph N/A   Clear
12:53 PM 42.1 °F 33.6 °F 21.9 °F 45% 30.14 in 10.0 mi WNW 18.4 mph 26.5 mph N/A   Clear
1:53 PM 42.1 °F 36.1 °F 21.9 °F 45% 30.15 in 10.0 mi WNW 10.4 mph 24.2 mph N/A   Clear
2:53 PM 41.0 °F 34.7 °F 21.9 °F 47% 30.18 in 10.0 mi West 10.4 mph - N/A   Clear
3:53 PM 39.0 °F 33.4 °F 26.1 °F 60% 30.20 in 10.0 mi West 8.1 mph - N/A   Clear
4:53 PM 36.0 °F 31.1 °F 26.1 °F 67% 30.20 in 10.0 mi West 5.8 mph - N/A   Clear
5:53 PM 35.1 °F 29.3 °F 26.1 °F 70% 30.22 in 10.0 mi WNW 6.9 mph - N/A   Clear
6:53 PM 34.0 °F 28.0 °F 26.1 °F 73% 30.24 in 10.0 mi West 6.9 mph - N/A   Clear
7:53 PM 33.1 °F 27.7 °F 25.0 °F 72% 30.26 in 10.0 mi NNW 5.8 mph - N/A   Clear
8:53 PM 30.9 °F 26.2 °F 24.1 °F 76% 30.24 in 10.0 mi NW 4.6 mph - N/A   Clear
9:53 PM 26.1 °F - 21.0 °F 81% 30.24 in 10.0 mi Calm Calm - N/A   Clear
10:53 PM 30.9 °F 25.2 °F 25.0 °F 79% 30.25 in 10.0 mi NW 5.8 mph - N/A   Clear
11:53 PM 26.1 °F - 21.0 °F 81% 30.22 in 10.0 mi Calm Calm - N/A   Clear